Regional Weather Roundup
Issued by NWS

Home | Current Version | Previous Version | Text Only | Print | Product List | Glossary On
Versions: 1 2 3 4 5 6 7 8 9 10 11 12 13 14 15 16 17 18 19 20 21 22 23 24 25 26 27 28 29 30 31 32 33 34 35 36 37 38 39 40 41 42 43 44 45 46 47 48 49 50
000
ASUS43 KTOP 120959
RWRKS

WEATHER ROUNDUP FOR KANSAS
NATIONAL WEATHER SERVICE GOODLAND KS
400 AM CST FRI FEB 12 2016

NOTE:  "FAIR" INDICATES FEW OR NO CLOUDS BELOW 12,000 FEET WITH NO
SIGNIFICANT WEATHER AND/OR OBSTRUCTIONS TO VISIBILITY.

KSZ001>006-013>018-027>032-041>047-121100-
NORTHWEST KANSAS

CITY           SKY/WX    TMP DP  RH WIND       PRES   REMARKS
GOODLAND       CLEAR     29  24  82 W7        30.28R
RUSSELL        CLOUDY    30  28  92 NE7       30.24R
$$

KSZ061>065-074>080-084>089-121100-
SOUTHWEST KANSAS

CITY           SKY/WX    TMP DP  RH WIND       PRES   REMARKS
DODGE CITY     CLOUDY    32  25  75 N12       30.26R WCI  23
ELKHART          N/A     37  23  56 W8          N/A
GARDEN CITY    CLOUDY    35  28  75 N13       30.27R WCI  26
GREAT BEND     CLOUDY    27  19  74 W9        30.26R
LIBERAL        CLOUDY    30  19  64 NW9       30.26R
$$

KSZ066>073-081>083-090>101-121100-
SOUTHEAST KANSAS

CITY           SKY/WX    TMP DP  RH WIND       PRES   REMARKS
CHANUTE        CLEAR     30  23  75 W6        30.19R
COFFEYVILLE    CLOUDY    26  22  84 CALM      30.21R
HUTCHINSON     CLOUDY    28  23  81 NW7       30.23R
MEDICINE LODGE   N/A     29  26  89 N5        30.23R
NEWTON         CLEAR     32  23  69 W6        30.23R
PARSONS        CLOUDY    24  22  91 CALM      30.20R
WICHITA INTL   PTCLDY    31  26  82 NW7       30.22R
WICHITA JABRA  CLOUDY    34  27  75 W10       30.21R WCI  26
WINFIELD       CLEAR     25  20  81 N3        30.23R
$$

KSZ007>012-019>026-033>040-048>060-102>105-121100-
NORTHEAST KANSAS

CITY           SKY/WX    TMP DP  RH WIND       PRES   REMARKS
CONCORDIA      CLOUDY    30  26  85 N12       30.26R WCI  20
EMPORIA        CLOUDY    26  22  84 NW6       30.20R
LAWRENCE       MOCLDY    27  23  85 CALM      30.22R
MANHATTAN      CLEAR     26  23  88 NW5       30.26R
OLATHE IND     CLOUDY    29  23  78 N3        30.20R
OLATHE EXE     CLOUDY    30  21  69 NE3       30.19R
SALINA         CLOUDY    33  27  78 N15       30.26R WCI  23
TOPEKA BILLARD PTCLDY    28  21  75 W5        30.23R
TOPEKA FORBES  CLOUDY    28  23  81 NW7       30.21R
$$



USA.gov is the U.S. government's official web portal to all federal, state and local government web resources and services.